[[{"header":{"parameterUnit":"m.s-1","parameterCategory":1,"la1":30.2991,"la2":30.254,"lo1":-89.0895,"lo2":-89.0444,"dy":0.0017,"dx":0.0017,"nx":28,"ny":28,"refTime":"2024-04-25T21:00:00:Z","depth":0,"parameterNumber":2,"parameterNumberName":"U-component_of_WINDS"},"data":[0,0,0,0,0,0,0,0,0,0,0,0,0,0,0,0,0,0,0,0,0,0,0,0,0,0,0,0,0,0,0,0,0,0,0,0,0,0,0,0,0,0,0,0,0,0,0,0,0,0,0,0,0,0,0,0,0,0,-2.6777,-2.6777,0,-2.6808,-2.6808,-2.6809,-2.6783,-2.6782,-2.6781,-2.678,-2.6811,-2.6813,-2.6815,0,0,0,0,0,0,0,0,0,0,0,0,0,-2.6696,-2.6697,-2.6777,-2.6777,-2.6778,-2.6808,-2.6808,-2.6809,-2.6783,-2.6782,-2.6781,-2.678,-2.6811,-2.6813,-2.6815,0,0,0,0,0,0,0,0,0,0,0,0,0,-2.6729,-2.6698,-2.6777,-2.6769,-2.6768,-2.6808,-2.6808,-2.6809,-2.6784,-2.6782,-2.678,-2.6779,-2.681,-2.6813,-2.6815,-2.6864,0,0,-2.6824,-2.6825,0,0,0,0,0,0,0,0,-2.6727,-2.6732,-2.6769,-2.6769,-2.6769,-2.679,-2.6791,-2.6827,-2.6784,-2.6778,-2.678,-2.6778,-2.6805,-2.6809,-2.6818,-2.6866,-2.6867,-2.6824,-2.6826,-2.6827,-2.6828,0,0,0,0,0,0,0,-2.6725,-2.6731,-2.6789,-2.677,-2.677,-2.6763,-2.6766,-2.6798,-2.68,-2.6778,-2.6776,-2.678,-2.6805,-2.6815,-2.6818,-2.6868,-2.6824,-2.6826,-2.6828,-2.6829,-2.6958,-2.696,0,0,0,0,0,0,-2.6724,-2.6729,-2.6788,-2.679,-2.6744,-2.6766,-2.677,-2.6785,-2.68,-2.6801,-2.6782,-2.6779,-2.6811,-2.6815,-2.6819,-2.6878,-2.6827,-2.6829,-2.6831,-2.6956,-2.6958,-2.696,0,0,0,0,0,0,-2.6722,-2.6729,-2.6787,-2.6759,-2.6766,-2.6769,-2.6787,-2.6786,-2.6796,-2.6803,-2.6803,-2.6792,-2.681,-2.6816,-2.6854,-2.6878,-2.6831,-2.6833,-2.6954,-2.6957,-2.6959,-2.6995,0,0,0,0,0,0,-2.672,-2.6729,-2.6747,-2.676,-2.6767,-2.682,-2.6788,-2.6788,-2.6801,-2.6798,-2.6812,-2.6813,-2.6809,-2.685,-2.6856,-2.6881,-2.6835,-2.6952,-2.6955,-2.6958,-2.6991,-2.6998,-2.7004,0,0,0,0,0,-2.6717,-2.6756,-2.6748,-2.6756,-2.6791,-2.6822,-2.6826,-2.6822,-2.6803,-2.6822,-2.6826,-2.6812,-2.6875,-2.6854,-2.6861,-2.6887,-2.695,-2.6954,-2.6958,-2.6988,-2.6997,-2.7004,0,0,0,0,0,0,-2.6746,-2.6757,-2.6749,-2.6793,-2.6807,-2.6818,-2.6841,-2.6831,-2.685,-2.6846,-2.684,-2.6843,-2.6883,-2.6889,-2.6865,-2.6936,-2.691,-2.6915,-2.693,-2.6938,-2.6944,-2.6942,-2.6838,0,0,0,0,0,-2.6757,-2.6782,-2.679,-2.6828,-2.6836,-2.6837,-2.6851,-2.6846,-2.686,-2.6866,-2.6872,-2.6886,-2.6909,-2.6924,-2.6945,-2.6992,-2.6995,-2.7014,-2.7021,-2.7026,-2.703,-2.7056,-2.7064,-2.6973,-2.6973,-2.6973,0,0,-2.6781,-2.6791,-2.6806,-2.6835,-2.6845,-2.687,-2.6842,-2.687,-2.6889,-2.687,-2.6906,-2.6912,-2.6927,-2.6969,-2.6989,-2.6976,-2.7056,-2.7031,-2.7035,-2.7037,-2.7061,-2.7069,-2.7077,-2.6976,-2.6975,-2.6975,0,0,-2.6838,-2.6847,-2.688,-2.6891,-2.6907,-2.6908,-2.6916,-2.6928,-2.6931,-2.6968,-2.6954,-2.6976,-2.7016,-2.7027,-2.7038,-2.71,-2.7088,-2.7107,-2.714,-2.7165,-2.7172,-2.7179,-2.72,-2.7208,-2.7112,-2.7112,-2.7112,0,-2.6865,-2.6903,-2.6898,-2.6927,-2.694,-2.6925,-2.6958,-2.6969,-2.699,-2.7,-2.6985,-2.7034,-2.7044,-2.7089,-2.7104,-2.7114,-2.7122,-2.7105,-2.7172,-2.7178,-2.7184,-2.7204,-2.7213,-2.7114,-2.7114,-2.7114,-2.7114,0,-2.6936,-2.6963,-2.6987,-2.7009,-2.7025,-2.7056,-2.7056,-2.7072,-2.7067,-2.7069,-2.7107,-2.7117,-2.7141,-2.7151,-2.7146,-2.7196,-2.7187,-2.7173,-2.7146,-2.7195,-2.7214,-2.7222,-2.7117,-2.7117,-2.7116,-2.7115,0,0,-2.701,-2.703,-2.7039,-2.7049,-2.7065,-2.7086,-2.7116,-2.7139,-2.7154,-2.717,-2.7195,-2.7229,-2.7216,-2.7228,-2.7224,-2.7246,-2.7294,-2.7228,-2.7229,-2.724,-2.7349,-2.736,-2.7369,-2.7287,-2.7288,-2.7289,-2.7348,0,-2.7067,-2.712,-2.7117,-2.7167,-2.7191,-2.7177,-2.7204,-2.7217,-2.7221,-2.7242,-2.7246,-2.727,-2.7251,-2.7258,-2.7279,-2.7284,-2.7316,-2.728,-2.731,-2.7311,-2.7305,-2.7379,-2.739,-2.7445,-2.7355,-2.7357,-2.7358,0,-2.714,-2.7159,-2.7211,-2.7225,-2.7235,-2.7259,-2.728,-2.73,-2.7315,-2.7316,-2.7331,-2.7323,-2.7354,-2.7328,-2.737,-2.7346,-2.7358,-2.7363,-2.7365,-2.7366,-2.7336,-2.7382,-2.7462,-2.747,-2.737,-2.7369,-2.7368,0,-2.7189,-2.7227,-2.7263,-2.7272,-2.7289,-2.7306,-2.7314,-2.7327,-2.7341,-2.736,-2.7369,-2.7391,-2.7403,-2.742,-2.7419,-2.74,-2.7462,-2.7435,-2.7463,-2.7463,-2.7476,-2.7475,-2.7558,-2.7486,-2.7485,-2.7485,-2.7485,0,-2.7252,-2.7284,-2.7285,-2.7307,-2.7343,-2.734,-2.7376,-2.7381,-2.7394,-2.7417,-2.7407,-2.7428,-2.7426,-2.7448,-2.7448,-2.7483,-2.7488,-2.749,-2.7489,-2.749,-2.749,-2.7497,-2.7493,-2.7487,-2.7487,-2.7486,-2.7486,0,-2.7311,-2.7313,-2.7352,-2.7365,-2.7369,-2.7395,-2.7406,-2.7427,-2.743,-2.7459,-2.7466,-2.7471,-2.7496,-2.7497,-2.7527,-2.7526,-2.7569,-2.7564,-2.7564,-2.7563,-2.759,-2.7587,-2.768,-2.7692,-2.7613,-2.7613,-2.7614,0,-2.7351,-2.7376,-2.7391,-2.7406,-2.7415,-2.7439,-2.7454,-2.7452,-2.7467,-2.7486,-2.7505,-2.753,-2.7549,-2.7591,-2.7597,-2.762,-2.7615,-2.7646,-2.7618,-2.7619,-2.7615,-2.7613,-2.7615,-2.7651,-2.7652,-2.7653,-2.7653,0,-2.7421,-2.7421,-2.7443,-2.7465,-2.7482,-2.7499,-2.7515,-2.7528,-2.7528,-2.7546,-2.7572,-2.7587,-2.7618,-2.7642,-2.7664,-2.7672,-2.7663,-2.7662,-2.767,-2.7671,-2.7669,-2.767,-2.7578,-2.766,-2.7659,-2.7659,-2.7658,-2.7658,-2.7472,-2.7493,-2.7508,-2.7532,-2.7544,-2.7559,-2.7579,-2.7585,-2.7607,-2.7631,-2.7629,-2.7658,-2.7673,-2.7702,-2.7711,-2.7734,-2.7723,-2.7734,-2.7737,-2.7739,-2.7742,-2.7667,-2.7738,-2.7738,-2.7738,-2.7738,-2.7738,0,-2.7541,-2.755,-2.7572,-2.7595,-2.7614,-2.7604,-2.7622,-2.7638,-2.7664,-2.7678,-2.7698,-2.7728,-2.7752,-2.7761,-2.7784,-2.78,-2.7797,-2.7806,-2.7805,-2.7807,-2.7751,-2.7742,-2.7809,-2.7809,-2.7809,-2.7809,-2.7809,-2.7809,-2.7579,-2.7615,-2.7616,-2.7658,-2.7666,-2.7695,-2.7705,-2.7719,-2.7731,-2.7765,-2.7785,-2.7791,-2.7803,-2.7827,-2.7848,-2.785,-2.7859,-2.7871,-2.7871,-2.7818,-2.7811,-2.7804,-2.7795,-2.7873,-2.7873,-2.7925,-2.7925,-2.7925]},{"header":{"parameterUnit":"m.s-1","parameterCategory":1,"la1":30.2991,"la2":30.254,"lo1":-89.0895,"lo2":-89.0444,"dy":0.0017,"dx":0.0017,"nx":28,"ny":28,"refTime":"2024-04-25T21:00:00:Z","depth":0,"parameterNumber":3,"parameterNumberName":"V-component_of_WINDS"},"data":[0,0,0,0,0,0,0,0,0,0,0,0,0,0,0,0,0,0,0,0,0,0,0,0,0,0,0,0,0,0,0,0,0,0,0,0,0,0,0,0,0,0,0,0,0,0,0,0,0,0,0,0,0,0,0,0,0,0,5.0503,5.0503,0,5.0537,5.0537,5.0538,5.0468,5.0466,5.0464,5.0461,5.0493,5.0496,5.0499,0,0,0,0,0,0,0,0,0,0,0,0,0,5.0374,5.0376,5.0503,5.0503,5.0504,5.0537,5.0537,5.0538,5.0469,5.0466,5.0463,5.046,5.0492,5.0495,5.0499,0,0,0,0,0,0,0,0,0,0,0,0,0,5.0421,5.0377,5.0503,5.0473,5.0471,5.0537,5.0538,5.0538,5.0469,5.0466,5.0462,5.0459,5.0491,5.0495,5.0499,5.0595,0,0,5.0513,5.0515,0,0,0,0,0,0,0,0,5.0418,5.0426,5.0477,5.0476,5.0473,5.0495,5.0503,5.0557,5.047,5.047,5.0461,5.0458,5.0496,5.05,5.0514,5.0596,5.0597,5.0513,5.0516,5.0518,5.0519,0,0,0,0,0,0,0,5.0415,5.0424,5.0516,5.0478,5.0476,5.0457,5.046,5.0513,5.0501,5.047,5.0465,5.047,5.0494,5.0509,5.0514,5.0598,5.0513,5.0517,5.052,5.0521,5.0759,5.0762,0,0,0,0,0,0,5.0416,5.0422,5.0515,5.0517,5.0437,5.0462,5.0465,5.0491,5.0501,5.0499,5.0473,5.0466,5.0504,5.0509,5.0515,5.0626,5.0518,5.0522,5.0524,5.0755,5.076,5.0763,0,0,0,0,0,0,5.0414,5.0425,5.0514,5.0468,5.0478,5.0468,5.0498,5.0494,5.0509,5.0503,5.05,5.0491,5.0501,5.0508,5.0575,5.0626,5.0524,5.0528,5.0751,5.0756,5.0761,5.085,0,0,0,0,0,0,5.041,5.0425,5.0462,5.047,5.0481,5.0575,5.0501,5.0497,5.0517,5.0509,5.0519,5.0518,5.0499,5.0569,5.058,5.063,5.0531,5.0746,5.0753,5.076,5.0843,5.0858,5.0871,0,0,0,0,0,5.0406,5.0485,5.0464,5.0476,5.0527,5.0579,5.0585,5.0563,5.0522,5.0558,5.0554,5.0517,5.0619,5.0576,5.0588,5.0641,5.0743,5.0751,5.0759,5.0836,5.0855,5.0871,0,0,0,0,0,0,5.0482,5.0485,5.0462,5.0547,5.0563,5.0567,5.0612,5.0584,5.0611,5.0603,5.0573,5.0576,5.0648,5.0651,5.0603,5.0733,5.0674,5.0685,5.0728,5.0746,5.076,5.0758,5.0535,0,0,0,0,0,5.0509,5.0552,5.0552,5.0626,5.0635,5.0623,5.0644,5.0626,5.0641,5.0647,5.0648,5.0664,5.0699,5.0722,5.0755,5.0843,5.0843,5.0884,5.0899,5.091,5.092,5.0966,5.0984,5.079,5.079,5.079,0,0,5.0564,5.0571,5.06,5.0641,5.0652,5.0695,5.0629,5.0678,5.0709,5.0654,5.0718,5.0719,5.0734,5.0812,5.0846,5.0816,5.0974,5.0921,5.093,5.0933,5.0976,5.0995,5.1011,5.0796,5.0795,5.0794,0,0,5.0688,5.0698,5.0761,5.0773,5.079,5.0781,5.0796,5.0804,5.0803,5.0866,5.0826,5.0862,5.0924,5.0936,5.095,5.1078,5.1044,5.1089,5.1163,5.1208,5.1223,5.1237,5.1281,5.1298,5.1098,5.1099,5.1099,0,5.0754,5.082,5.0796,5.0848,5.0867,5.082,5.0882,5.0895,5.0921,5.0935,5.0901,5.0977,5.0984,5.1063,5.1095,5.1108,5.1123,5.1087,5.1223,5.1236,5.1248,5.1291,5.1308,5.1104,5.1103,5.1103,5.1102,0,5.09,5.0946,5.0994,5.1022,5.1046,5.1103,5.1087,5.1114,5.1093,5.1087,5.1152,5.1158,5.119,5.1208,5.1188,5.1285,5.1265,5.1228,5.1168,5.1273,5.1312,5.1328,5.1111,5.1109,5.1108,5.1107,0,0,5.1073,5.1087,5.1105,5.1117,5.1132,5.1166,5.122,5.1253,5.1276,5.1296,5.134,5.1393,5.1358,5.1374,5.1355,5.1395,5.1495,5.1353,5.1352,5.1378,5.16,5.1628,5.1648,5.1473,5.1476,5.1478,5.1599,0,5.1195,5.129,5.1269,5.1362,5.1403,5.1359,5.1406,5.1419,5.1415,5.1448,5.1443,5.1481,5.1433,5.1442,5.1479,5.1475,5.1539,5.1466,5.1512,5.1514,5.151,5.1668,5.1698,5.1812,5.1614,5.1617,5.1619,0,5.135,5.1376,5.1473,5.1481,5.1498,5.1541,5.1568,5.1601,5.1615,5.1609,5.1628,5.1601,5.1653,5.1593,5.1663,5.1614,5.1632,5.1632,5.1636,5.1639,5.1573,5.1675,5.1847,5.1864,5.1643,5.1641,5.1639,0,5.1466,5.1525,5.1591,5.1602,5.1613,5.1644,5.165,5.1661,5.1682,5.1705,5.1718,5.1748,5.1764,5.1786,5.1768,5.1726,5.1841,5.178,5.1837,5.1837,5.1863,5.1861,5.204,5.1875,5.1875,5.1874,5.1874,0,5.1604,5.1665,5.1643,5.1683,5.175,5.1725,5.1791,5.1791,5.1801,5.184,5.1803,5.1839,5.1812,5.1846,5.1832,5.1892,5.19,5.1895,5.1891,5.1899,5.1899,5.191,5.1901,5.1879,5.1878,5.1877,5.1876,0,5.1745,5.1733,5.1801,5.1806,5.1809,5.1857,5.1861,5.1897,5.189,5.1939,5.1949,5.1938,5.1976,5.1959,5.1999,5.1989,5.2067,5.2051,5.2062,5.2058,5.2116,5.2111,5.2307,5.2332,5.2151,5.2153,5.2155,0,5.1834,5.188,5.189,5.1913,5.1922,5.1961,5.1982,5.1959,5.1982,5.2001,5.2035,5.207,5.2097,5.2159,5.2154,5.2184,5.2169,5.2236,5.2173,5.218,5.2169,5.2167,5.2171,5.2248,5.225,5.2252,5.2253,0,5.1993,5.1984,5.2017,5.2047,5.2074,5.2096,5.2115,5.2137,5.2114,5.2142,5.2181,5.2202,5.2243,5.2277,5.2304,5.2308,5.2277,5.2273,5.2288,5.2296,5.2301,5.2299,5.2096,5.2269,5.2267,5.2266,5.2265,5.2265,5.211,5.2148,5.2162,5.2199,5.2211,5.2229,5.2264,5.2261,5.2294,5.2326,5.231,5.2355,5.2366,5.2399,5.2407,5.2441,5.2415,5.2436,5.2442,5.2447,5.2455,5.2296,5.2446,5.2445,5.2445,5.2445,5.2444,0,5.2267,5.2273,5.2307,5.2336,5.2365,5.2334,5.2353,5.2379,5.2419,5.2433,5.2461,5.2505,5.2538,5.2535,5.2566,5.2593,5.258,5.2602,5.26,5.2601,5.2477,5.2461,5.2613,5.2613,5.2613,5.2613,5.2612,5.2612,5.2352,5.2415,5.2408,5.2477,5.2482,5.2527,5.254,5.2557,5.2567,5.2619,5.2647,5.2645,5.2652,5.2682,5.2711,5.2709,5.2722,5.275,5.2743,5.2627,5.261,5.2594,5.2579,5.2753,5.2753,5.2864,5.2865,5.2866]}]]